Home > Weather > Kaiserslautern > Past weeks

Flag for Germany Weather for the Past 2 Weeks in Kaiserslautern, Rhineland-Palatinate, Germany

Now
56 °F

Sunny.


Feels Like: 56 °F
Forecast: 33 / 56 °F
Wind: 3 mph from North

Location: Ramstein

Current Time: May 3, 2016 at 8:33:01 PM

Latest Report: May 3, 2016 at 7:58 PM


Visibility: N/A

Pressure: 30.24 "Hg

Humidity: 45%

Dew Point: 34 °F

Location of KaiserslauternLocation

Historic Weather in Kaiserslautern — Graph

°F

Kaiserslautern Temperature Yesterday

Maximum temperature yesterday: 66 °F (at 5:58 PM)
Minimum temperature yesterday: 35 °F (at 5:58 AM)
Average temperature yesterday: 52 °F

High & Low Weather Summary for the Past Weeks

 TemperatureHumidityPressure
High69 °F (Apr 21, 3:58 PM)100% (Apr 19, 12:58 AM)30.42 "Hg (Apr 19, 12:58 AM)
Low27 °F (Apr 25, 5:58 AM)25% (Apr 21, 1:58 PM)29.59 "Hg (Apr 26, 2:58 AM)
Average45 °F77%30.04 "Hg
* Reported Apr 18 6:58 PM — May 3 6:58 PM, Kaiserslautern, Weather by CustomWeather, © 2016

Note: Actual official high and low records may vary slightly from our data, if they occured in-between our weather recording intervals... More about our weather records

Advertising

Kaiserslautern Weather History for the Previous 24 Hours

Scroll right to see more
 ConditionsComfort  
Time TempWeatherWind HumidityBarometerVisibility
6:58 PM
Tue, May 3
56 °FScattered clouds.2 mph50%30.23 "HgN/A
5:58 PM56 °FPassing clouds.1 mph49%30.22 "HgN/A
4:58 PM55 °FScattered clouds.5 mph56%30.22 "HgN/A
3:58 PM55 °FScattered clouds.9 mph55%30.21 "HgN/A
2:58 PM52 °FBroken clouds.3 mph77%30.19 "HgN/A
1:58 PM53 °FBroken clouds.5 mph71%30.19 "HgN/A
12:58 PM50 °FBroken clouds.1 mph100%30.18 "HgN/A
11:59 AM50 °FLight rain. Partly sunny.7 mph100%30.16 "HgN/A
11:56 AM50 °FLight rain. Partly sunny.7 mph100%30.16 "HgN/A
11:03 AM48 °FLight rain. Fog.3 mph100%30.15 "Hg6 mi
9:58 AM51 °FLight rain. Mostly cloudy.8 mph95%30.15 "HgN/A
8:50 AM50 °FLight rain. More clouds than sun.7 mph88%30.11 "HgN/A
7:58 AM49 °FBroken clouds.3 mph98%30.12 "HgN/A
6:58 AM41 °FPassing clouds.No wind100%30.11 "HgN/A
5:58 AM41 °FPassing clouds.No wind100%30.10 "HgN/A
4:58 AM41 °FClear.No wind98%30.11 "HgN/A
3:58 AM42 °FClear.2 mph99%30.10 "HgN/A
1:58 AM43 °FClear.No wind99%30.10 "HgN/A
12:58 AM44 °FClear.1 mph97%30.11 "HgN/A
11:58 PM
Mon, May 2
45 °FPassing clouds.No wind93%30.12 "HgN/A
10:58 PM47 °FClear.No wind87%30.12 "HgN/A
9:58 PM49 °FClear.No wind84%30.12 "HgN/A
8:58 PM51 °FSunny.No wind83%30.12 "HgN/A
Weather by CustomWeather, © 2016

See weather overviewHow to use our weather pages